Hourly Data Report for September 12, 2017

All times are specified in Local Standard Time (LST). Add 1 hour to adjust for Daylight Saving Time where and when it is observed.

CHARLOTTETOWN A
PRINCE EDWARD ISLAND

46°17'21.000" N
63°07'09.000" W
48.50 m
8300301
71706
YYG

Download Data

Hourly Data (September 2017)
Hourly Data Report for September 12, 2017
Temp Definition
°C
Dew Point Temp Definition
°C
Rel Hum Definition
%
Wind Dir Definition
10's deg

Wind Spd Definition
km/h
Visibility Definition
km
Stn Press Definition
kPa
Hmdx Definition


Wind Chill Definition


Weather Definition


TIME
00:00 Legend Double Dagger 13.9 9.3 74 36 20 24.1 100.60     LegendNANA
01:00 Legend Double Dagger 14.1 9.4 73 36 20 24.1 100.60     LegendNANA
02:00 Legend Double Dagger 13.8 8.7 71 1 18 24.1 100.56     Mainly Clear
03:00 Legend Double Dagger 13.5 8.4 71 1 22 24.1 100.56     LegendNANA
04:00 Legend Double Dagger 13.0 8.4 73 2 24 24.1 100.52     LegendNANA
05:00 Legend Double Dagger 12.6 9.0 79 1 14 24.1 100.50     Mostly Cloudy
06:00 Legend Double Dagger 12.6 9.3 80 1 19 19.3 100.48     LegendNANA
07:00 Legend Double Dagger 12.5 9.5 82 3 19 24.1 100.49     LegendNANA
08:00 Legend Double Dagger 13.8 9.8 76 1 18 24.1 100.54     Mostly Cloudy
09:00 Legend Double Dagger 14.9 9.8 71 36 20 24.1 100.50     LegendNANA
10:00 Legend Double Dagger 15.5 10.1 70 36 17 24.1 100.45     LegendNANA
11:00 Legend Double Dagger 16.2 10.3 68 35 19 24.1 100.40     Mainly Clear
12:00 Legend Double Dagger 16.1 9.7 65 33 17 24.1 100.36     LegendNANA
13:00 Legend Double Dagger 16.1 9.1 63 35 14 24.1 100.28     LegendNANA
14:00 Legend Double Dagger 16.6 9.1 61 36 12 24.1 100.22     Mainly Clear
15:00 Legend Double Dagger 16.5 8.4 59 36 13 24.1 100.16     LegendNANA
16:00 Legend Double Dagger 16.1 9.0 63 1 12 24.1 100.15     LegendNANA
17:00 Legend Double Dagger 15.4 9.5 68 1 10 24.1 100.08     Mainly Clear
18:00 Legend Double Dagger 13.9 9.1 72 36 6 24.1 100.06     LegendNANA
19:00 Legend Double Dagger 11.4 8.7 83 2 5 24.1 100.05     LegendNANA
20:00 Legend Double Dagger 11.2 9.6 90 7 9 24.1 100.05     Mainly Clear
21:00 Legend Double Dagger 11.5 9.8 90 36 2 24.1 100.06     LegendNANA
22:00 Legend Double Dagger 11.6 9.8 89 14 3 24.1 100.00     LegendNANA
23:00 Legend Double Dagger 12.4 9.9 84 26 3 24.1 99.99     Mostly Cloudy

Notes on Data Quality.

Legend

  • E = Estimated
  • M = Missing
  • NA = Not Available
  • ‡ = Partner data that is not subject to review by the National Climate Archives
Date modified: